Wind_Speed
16 16 15 14 14 15 15 15 15 16 16 17 17 17 17 17 17 17 17 17 17 17 17 16 16 18 19 19 20 21 24 25 24 24 25 20 12 13 13 11 11 10 11 8 10 16 17 18 17 16 14 14 16 15 13 14 15 10 5 4 6 2 2 8 2 3 4 9 8 9 10 10 8 9 10 10 13 14 14 13 12 13 17 21 25 28 27 26
17 16 17 16 15 15 15 15 15 16 16 16 16 17 17 17 18 17 18 18 18 18 18 17 17 17 19 20 20 22 25 26 27 29 25 19 15 16 16 16 17 15 14 12 15 19 19 20 18 16 16 16 16 15 14 15 16 10 3 3 7 3 5 7 2 4 3 6 7 7 9 10 8 10 10 11 13 12 13 13 13 17 21 24 27 28 27 27
17 17 17 17 17 16 16 17 17 17 17 17 17 17 17 17 17 18 18 17 18 18 18 18 18 17 18 19 20 21 24 28 29 25 18 14 16 17 15 15 16 16 16 15 16 19 19 19 18 17 19 17 16 16 14 13 13 10 6 2 8 10 5 3 1 4 4 6 7 5 8 10 9 10 11 11 13 11 12 12 13 20 24 25 26 27 28 27
17 18 17 17 18 17 17 18 18 18 18 18 18 18 17 18 18 18 18 18 18 17 18 18 18 18 17 18 19 20 23 25 18 8 5 9 14 13 11 11 12 14 17 15 15 18 18 18 19 20 19 16 16 16 12 11 10 8 7 3 7 8 8 11 7 5 6 7 8 5 6 9 10 9 9 12 11 9 12 13 16 22 26 27 27 28 27 26
18 18 18 18 18 18 17 18 18 18 19 19 20 19 19 19 18 18 18 18 17 17 17 17 18 17 17 18 18 18 19 13 1 6 4 5 8 8 7 7 8 13 17 17 16 17 18 18 19 20 17 13 14 14 11 13 10 6 7 6 7 3 4 16 13 5 6 7 9 7 5 6 10 7 8 13 7 7 14 15 18 23 27 28 28 29 28 27
19 19 19 19 18 19 18 18 19 19 19 20 20 21 20 20 20 19 18 18 17 17 17 17 17 16 17 16 16 17 12 6 1 3 6 4 6 7 7 6 6 11 18 18 17 17 18 19 18 18 15 11 14 12 12 17 14 7 7 11 7 1 5 19 11 5 5 7 8 7 7 7 10 7 7 10 5 8 18 18 20 24 26 28 27 28 28 28
19 19 20 20 19 19 19 19 19 19 20 20 21 21 21 21 21 20 19 18 17 17 16 17 16 16 16 15 16 15 14 18 16 12 13 11 11 12 11 9 7 9 18 19 18 18 18 20 20 18 14 11 13 13 15 20 20 11 6 10 10 9 16 18 7 6 6 7 8 8 9 9 9 8 8 9 3 10 22 20 22 25 25 27 26 27 27 28
19 19 20 20 20 20 20 20 19 20 20 20 21 21 21 22 22 21 20 19 17 16 16 16 15 16 16 14 13 13 19 21 14 11 13 12 12 14 14 12 9 9 18 21 18 19 18 20 21 18 13 11 14 14 17 17 14 14 9 9 11 13 16 13 6 7 7 7 9 9 9 9 8 8 9 10 7 11 22 23 24 26 25 26 25 26 27 27
19 20 20 20 20 20 20 20 20 20 20 20 21 21 22 22 22 21 20 19 18 17 16 16 16 15 15 15 11 12 19 13 6 6 10 12 12 12 12 11 10 10 16 20 19 19 19 19 20 19 14 14 17 15 16 13 8 12 10 9 10 10 11 10 11 10 8 8 11 10 9 11 9 9 8 11 12 11 20 24 24 26 25 26 25 25 27 27
20 20 20 20 20 21 21 20 20 20 20 20 21 21 21 22 22 22 20 19 18 17 16 15 15 14 14 13 10 11 12 6 5 8 8 8 9 9 9 10 11 11 15 18 19 20 20 18 18 19 17 17 17 15 17 14 9 13 14 12 13 11 12 11 13 13 11 10 12 12 9 11 11 9 7 12 16 12 20 24 23 25 25 25 25 25 26 26
21 21 21 21 20 21 21 21 21 20 21 20 20 21 21 21 22 21 20 19 19 17 16 15 15 14 14 10 11 13 9 6 6 6 6 7 8 9 9 12 13 13 15 16 18 20 20 18 16 16 15 13 16 17 18 18 15 18 20 15 14 14 15 13 15 16 13 10 13 13 8 11 12 9 7 14 18 14 21 24 22 24 24 25 24 25 26 25
22 22 22 22 22 22 21 22 21 21 21 21 20 20 20 21 21 21 20 19 19 18 16 16 14 14 13 12 20 19 11 11 11 8 10 10 11 11 10 12 14 15 15 16 17 18 19 19 18 17 14 12 13 13 14 19 20 22 21 11 10 12 11 14 16 15 11 10 15 13 8 11 12 9 11 17 17 16 21 22 22 23 23 25 24 24 25 25
21 22 22 22 22 22 22 22 22 23 22 21 21 20 20 20 19 20 19 19 19 18 17 16 14 13 10 14 24 20 12 15 16 14 14 13 13 13 13 13 14 15 15 16 16 16 17 18 18 20 19 15 13 12 14 19 17 17 16 10 8 9 9 15 13 10 10 10 16 13 7 9 11 11 14 19 18 17 20 21 22 23 23 24 23 25 25 24
21 21 22 22 22 22 23 23 23 24 23 22 22 20 20 19 19 19 18 19 19 19 18 15 12 9 10 17 25 20 15 17 17 18 16 15 15 15 16 15 15 16 16 17 16 15 16 17 18 19 20 19 17 16 16 16 11 11 12 9 8 7 9 13 12 11 12 10 18 14 5 6 11 12 14 19 20 18 19 21 22 23 23 24 23 24 25 25
21 21 21 22 22 22 22 23 24 24 24 23 22 21 21 20 18 17 17 18 18 18 17 13 10 6 11 22 26 17 14 18 19 20 18 17 18 17 18 17 18 17 17 18 17 16 16 16 18 18 18 19 19 16 13 11 9 9 10 9 9 8 10 9 11 12 11 10 16 13 5 6 10 13 16 21 21 19 20 21 22 23 23 24 24 24 25 25
22 21 21 22 22 22 22 23 23 23 24 23 22 21 20 20 19 17 17 18 18 18 15 10 7 5 9 14 13 9 12 19 21 20 18 19 19 18 17 17 17 18 18 18 16 16 16 16 18 18 17 15 14 12 9 9 9 9 9 9 10 10 10 7 9 12 11 9 14 12 7 5 7 11 18 22 22 20 20 21 21 22 24 24 24 24 25 24
24 22 22 22 23 22 22 23 23 23 23 22 21 20 18 19 19 17 17 18 17 15 13 7 3 7 14 12 8 9 12 17 16 15 17 19 19 18 16 16 17 17 18 17 16 16 17 17 15 14 15 12 11 11 10 10 9 8 8 8 11 12 11 7 8 10 12 10 12 12 10 6 7 13 20 23 22 21 21 21 22 22 23 24 24 24 25 25
26 24 23 23 24 23 22 23 23 22 22 20 19 20 18 15 17 19 19 17 13 10 10 10 7 6 13 16 15 15 14 15 13 12 15 16 17 17 15 15 15 16 17 16 17 19 18 17 14 10 11 12 11 11 10 11 11 10 10 9 10 13 14 9 9 9 12 12 12 12 12 8 6 11 19 22 21 22 20 21 22 22 22 23 24 24 25 26
27 25 24 24 25 24 23 22 21 21 22 19 17 16 15 14 15 15 11 10 8 6 6 10 16 10 9 10 12 13 13 13 13 11 14 15 15 14 14 14 15 18 17 12 15 19 16 13 13 11 11 12 14 14 14 15 16 15 14 12 11 12 11 9 9 11 13 13 12 12 12 9 6 10 16 21 21 22 21 21 21 22 22 23 24 24 24 25
27 26 25 24 24 25 24 21 20 20 19 18 16 12 11 13 11 5 3 8 16 15 16 14 19 20 19 18 11 7 6 11 14 14 15 14 13 15 15 15 16 17 15 11 12 18 16 11 11 13 13 16 17 19 20 19 19 19 16 14 14 13 9 9 11 14 15 12 11 13 13 11 10 12 14 19 20 20 20 21 21 22 22 23 24 24 24 25
27 26 25 24 23 24 23 21 19 17 15 15 14 12 11 12 7 7 13 17 21 22 28 29 25 26 26 24 17 10 8 11 16 17 15 14 14 13 15 16 15 12 13 14 12 15 16 12 14 17 18 19 19 21 22 20 20 20 18 14 13 12 9 11 14 15 18 12 11 14 13 12 13 13 14 17 17 17 19 20 20 23 23 24 24 24 24 24
28 27 26 25 23 22 22 20 18 13 11 10 11 11 11 10 7 11 16 19 23 25 29 32 33 33 31 28 26 21 17 15 19 20 17 16 16 13 14 16 14 11 13 15 12 12 13 13 17 20 19 19 20 20 22 22 21 18 15 13 11 10 10 12 14 15 18 10 10 15 14 12 14 14 13 14 14 15 20 21 21 23 24 24 24 24 24 25
27 28 27 26 24 21 19 18 13 11 11 10 11 12 11 10 10 13 14 16 24 26 29 32 34 35 33 31 29 26 24 19 17 22 22 19 20 19 15 14 14 14 14 15 14 12 11 13 18 20 18 20 21 21 22 21 18 15 14 13 11 12 11 9 11 14 18 11 9 13 12 9 12 14 12 15 17 17 20 21 21 21 22 23 25 26 26 27
25 27 27 27 26 21 18 15 8 9 11 11 13 12 9 11 12 15 15 14 16 19 26 32 33 34 33 30 26 27 27 23 19 20 23 22 21 20 16 15 15 14 14 17 19 17 14 13 17 20 20 21 21 21 22 17 14 16 18 15 13 14 15 11 10 10 15 13 10 10 9 8 11 13 12 15 18 18 19 21 21 21 22 22 24 26 27 27
25 25 26 26 26 23 17 9 4 7 10 9 9 7 8 12 12 14 14 10 10 14 20 23 26 29 31 26 24 27 26 24 25 23 22 24 23 17 15 16 14 13 16 20 19 17 16 16 17 19 20 22 21 19 21 17 12 15 19 20 19 17 17 15 14 9 10 10 10 9 7 7 10 14 13 13 14 16 18 19 19 21 23 23 22 24 26 27
25 24 26 25 25 24 17 6 5 11 9 5 7 8 11 13 13 13 9 6 7 10 10 14 17 18 23 25 25 26 19 20 27 27 24 25 25 20 14 13 12 13 16 17 13 10 13 19 18 18 20 23 21 18 21 21 13 12 16 21 24 22 19 16 17 13 8 8 10 11 9 6 8 13 14 14 15 18 18 16 18 21 23 23 23 23 24 26
26 23 24 25 22 23 18 10 11 14 9 8 11 12 14 13 13 12 6 6 6 6 8 12 12 11 17 23 25 21 11 12 23 28 28 26 27 24 16 12 11 12 13 11 10 9 12 20 20 19 20 19 18 16 19 22 15 11 15 20 23 23 22 19 17 14 9 8 11 13 12 8 8 10 13 15 17 17 16 15 17 19 22 24 24 24 24 25
27 24 23 24 20 17 17 16 16 14 12 13 15 14 14 13 12 9 5 6 3 3 9 9 7 7 11 18 25 23 12 8 13 24 32 28 28 25 17 16 15 14 15 12 10 11 14 18 20 20 18 14 15 16 19 21 17 14 17 19 20 21 22 20 16 12 10 9 9 12 13 9 8 9 11 15 17 16 16 19 18 19 23 26 25 25 25 25
26 24 23 24 21 14 13 17 17 13 10 12 14 14 14 13 11 6 5 6 5 1 6 9 8 9 12 15 22 25 19 12 9 18 32 29 28 25 16 18 19 16 18 16 13 12 13 17 19 19 16 13 15 18 20 21 17 16 19 19 18 19 19 18 15 11 10 9 8 12 13 8 7 9 10 13 15 16 17 18 17 20 25 26 26 26 25 26
25 24 23 23 23 17 14 14 11 12 12 12 13 13 13 12 8 6 8 6 3 2 6 10 10 13 16 14 16 21 20 17 11 16 26 26 27 26 19 19 20 15 15 17 16 15 16 18 18 16 14 13 16 18 20 22 19 17 18 17 16 16 15 14 12 10 9 8 10 14 15 12 9 9 10 11 12 13 15 15 15 19 24 25 25 26 26 27
25 23 22 22 21 19 18 13 6 6 8 10 11 10 10 8 5 7 8 4 4 5 6 7 10 15 18 16 14 17 18 17 13 15 17 17 21 21 17 15 15 12 12 13 14 17 19 18 13 14 17 18 17 16 17 20 21 18 15 13 12 11 11 11 10 10 11 11 11 16 18 17 11 8 10 13 14 16 16 15 17 19 22 26 28 28 28 27
26 23 22 21 18 18 20 15 8 11 15 12 12 10 7 6 8 10 8 1 4 8 8 10 12 14 19 19 15 16 18 15 14 15 14 13 13 15 15 12 10 10 11 11 12 15 16 17 15 14 19 21 17 13 13 16 18 17 14 12 11 9 9 10 10 10 11 11 12 17 19 15 12 10 13 16 17 19 18 16 19 21 24 29 31 28 26 26
27 24 23 19 16 19 22 17 10 12 14 11 12 9 6 8 9 11 11 7 5 4 5 10 13 14 17 17 14 16 18 16 16 16 15 15 13 14 18 18 16 13 10 11 12 12 12 15 19 16 14 19 19 12 11 13 13 14 14 12 11 9 9 11 10 8 10 11 15 20 17 12 11 11 15 19 17 18 21 22 22 23 24 25 25 24 23 25
27 25 23 19 16 16 17 15 11 9 9 8 9 8 9 12 10 9 12 13 11 10 6 4 9 15 17 15 14 15 15 15 18 17 16 16 14 13 16 20 22 17 10 11 11 11 12 12 16 17 11 15 20 16 12 12 12 13 14 13 12 10 9 10 8 9 10 11 14 18 13 10 10 8 14 20 20 21 23 24 24 23 23 23 23 26 26 26
26 24 24 21 15 12 12 12 11 9 9 9 8 8 13 13 8 8 11 11 12 15 15 12 11 12 14 15 16 18 16 14 18 19 15 15 14 13 14 17 22 20 12 10 9 10 15 11 13 20 17 16 18 17 15 14 12 12 14 14 13 12 10 9 10 12 12 10 11 11 9 9 9 8 11 15 18 22 21 21 22 21 24 26 27 31 31 27
27 25 24 21 16 13 11 12 12 11 12 11 9 11 13 11 8 8 8 8 11 13 15 16 14 12 12 12 14 20 20 15 18 17 14 17 17 17 16 14 20 23 16 11 7 8 12 11 12 20 22 21 18 17 18 16 11 9 13 15 14 15 14 10 11 14 12 11 9 8 10 9 9 10 11 12 14 17 17 17 18 19 22 25 25 30 33 29
28 26 24 23 17 12 11 12 12 12 14 12 11 13 11 10 13 12 10 12 14 14 13 13 12 12 13 11 12 18 19 16 17 14 12 16 16 18 20 16 20 25 22 16 10 9 10 9 13 20 21 23 22 19 19 20 16 10 11 14 13 16 15 9 8 11 12 11 8 11 15 12 8 8 10 15 17 16 16 16 16 17 20 22 22 27 35 33
27 25 25 21 10 7 12 12 11 13 14 12 14 17 12 11 16 16 16 17 17 16 14 11 10 12 14 12 12 16 18 14 15 14 12 13 13 17 21 17 18 24 26 23 13 9 11 9 11 18 19 19 21 18 16 20 24 20 13 11 12 13 13 10 8 10 11 10 8 12 16 12 10 9 10 16 17 15 15 15 16 16 18 21 23 27 39 37
23 21 20 13 5 4 10 10 11 14 14 11 12 14 11 14 19 22 26 23 18 16 15 14 13 12 14 14 13 15 17 16 15 14 12 10 10 17 21 17 17 22 26 25 15 9 11 8 8 14 18 17 16 14 13 15 21 21 17 13 11 10 10 10 10 9 9 9 9 12 13 10 10 11 13 15 15 16 16 14 15 17 19 24 25 26 38 39
19 16 16 11 4 3 6 7 13 14 11 11 13 11 11 14 18 24 31 27 18 15 13 14 15 13 14 16 15 14 15 17 17 15 12 12 11 14 19 18 17 20 24 25 19 12 10 9 8 10 15 16 12 12 15 13 13 15 15 14 12 10 9 10 11 10 9 9 9 10 11 9 8 10 13 13 13 15 15 13 13 16 21 25 26 27 35 40
17 12 12 10 5 4 7 11 13 12 10 11 13 14 14 15 15 19 27 27 22 19 19 17 16 15 14 15 15 14 13 14 17 14 11 14 14 11 16 19 18 18 20 21 18 14 9 8 9 9 11 13 13 15 18 17 15 13 13 14 14 11 10 11 12 12 11 10 9 10 10 9 8 8 8 10 10 14 15 14 14 19 23 25 27 29 30 38
15 10 12 11 8 10 12 12 11 11 11 12 14 16 17 17 17 19 23 25 22 20 21 19 18 17 15 15 16 14 13 13 15 15 13 16 18 13 14 19 21 20 17 15 17 16 11 8 9 11 11 12 15 19 21 21 20 16 14 15 16 14 12 11 10 10 11 12 12 12 11 8 8 8 7 8 9 12 18 18 15 21 26 27 30 31 27 37
14 15 21 21 18 19 16 10 11 12 11 15 19 22 22 18 16 18 20 22 19 17 17 16 18 19 16 16 17 16 15 13 15 18 16 15 19 19 19 22 23 21 16 12 15 16 12 8 9 10 9 12 16 17 19 21 19 16 15 15 16 17 17 14 10 9 10 12 13 11 11 9 8 8 7 8 9 11 17 18 14 17 24 30 35 32 25 38
18 22 27 24 19 19 16 10 11 11 11 17 20 21 24 22 20 20 19 18 17 15 15 15 17 19 17 17 17 16 16 13 14 19 17 14 15 21 26 27 22 18 15 12 12 13 11 9 9 9 8 10 13 14 16 17 16 12 12 16 17 20 23 20 14 9 9 14 16 13 9 8 8 7 6 7 10 13 15 15 15 16 19 27 33 26 23 35
18 19 21 21 17 19 20 15 13 12 13 18 19 18 19 18 19 23 23 22 21 18 15 16 17 17 16 18 19 19 19 15 13 14 15 15 15 17 25 28 23 18 14 9 10 13 12 9 10 10 11 11 11 11 11 12 12 11 13 18 20 22 25 20 13 10 9 11 15 14 9 6 9 11 10 11 12 11 9 10 15 19 20 20 20 19 27 35
14 11 12 15 16 18 22 23 22 16 12 12 11 13 15 13 14 21 22 21 26 25 19 17 19 19 16 17 18 19 21 21 17 14 14 15 14 13 20 25 23 19 7 3 4 11 10 9 12 13 12 12 10 10 11 12 13 14 18 21 21 22 24 18 12 12 11 9 10 10 8 9 12 14 14 14 16 11 9 11 14 17 15 14 14 23 26 27
11 8 9 10 10 13 15 17 17 10 7 9 7 9 16 16 14 18 19 15 16 18 15 15 17 17 17 18 16 16 20 22 21 19 18 17 15 15 21 24 20 16 8 3 4 8 7 11 17 19 18 18 15 14 17 17 17 18 20 23 22 22 23 20 16 15 13 11 11 9 8 11 15 14 12 12 15 14 9 11 12 15 14 14 13 22 24 25
11 12 15 14 10 9 10 13 14 9 8 10 8 8 16 18 14 15 15 14 16 15 9 10 14 14 15 16 13 12 16 18 20 21 20 17 16 17 18 21 21 18 13 10 11 7 7 12 17 20 23 25 23 21 21 19 17 18 20 21 22 23 24 22 20 19 16 11 11 11 10 12 14 16 16 12 11 12 12 12 15 16 17 14 10 19 23 25
15 16 17 15 12 12 16 21 22 17 13 12 9 9 13 16 17 16 13 12 13 12 10 10 15 19 19 18 13 10 10 10 12 15 16 16 17 17 14 15 20 20 18 15 13 9 8 9 14 18 20 24 26 25 24 22 18 19 20 19 20 22 24 24 21 21 20 17 17 17 13 12 13 15 18 19 16 14 13 13 17 19 18 15 10 17 23 23
17 13 12 14 14 17 22 23 19 15 13 12 10 10 12 14 17 17 13 13 13 10 10 12 15 18 19 19 16 12 13 16 15 13 15 14 12 13 12 12 16 18 18 16 12 10 9 8 11 15 13 15 21 24 25 25 21 20 20 20 21 22 23 23 21 20 20 19 22 22 15 11 12 13 15 19 21 19 15 12 14 19 21 20 20 20 24 26
18 16 13 12 11 13 17 18 14 11 10 9 9 11 12 14 16 15 13 15 16 13 11 11 13 15 16 17 17 16 18 21 22 22 22 19 15 15 14 13 15 15 17 16 13 11 11 9 10 11 9 12 17 21 25 25 22 22 22 21 23 23 21 20 18 17 17 17 18 18 14 10 10 12 14 16 18 18 16 15 16 18 23 27 27 27 29 27
17 19 16 9 8 11 12 12 12 11 10 9 9 11 13 14 15 13 11 13 16 17 14 10 8 10 13 14 15 19 24 27 29 31 30 26 25 24 22 19 20 17 13 14 15 13 12 10 9 10 10 11 15 16 17 18 18 18 18 21 22 20 19 19 14 14 18 17 14 13 11 8 7 10 15 16 15 15 16 18 21 21 20 24 28 32 33 29
Wind_Direction
324 323 323 323 323 322 321 319 316 315 314 312 311 310 309 308 306 305 303 302 302 303 303 300 297 296 300 302 303 302 304 303 303 301 284 270 258 248 251 236 226 232 243 242 188 180 184 189 197 204 218 225 225 229 216 218 226 217 221 260 274 332 290 274 341 76 113 112 136 155 135 128 134 115 121 134 127 138 141 127 121 124 132 133 136 141 144 146
322 322 321 322 323 322 321 319 317 315 314 313 312 312 310 308 307 305 304 303 301 302 301 301 299 295 298 300 303 304 302 304 303 295 274 260 260 251 248 242 238 237 233 223 194 187 189 191 198 209 220 226 224 225 220 216 218 213 200 267 280 276 219 244 5 79 108 117 134 145 141 140 133 127 157 153 126 148 142 124 127 123 124 129 137 143 146 149
319 319 319 320 321 321 320 318 317 315 313 312 311 311 309 308 307 307 306 305 304 303 301 300 299 297 297 298 301 303 304 309 303 290 273 250 244 245 247 244 238 229 221 215 201 196 197 194 200 212 218 229 228 221 215 205 210 209 187 197 258 264 288 320 24 110 115 126 138 156 147 136 132 144 174 152 134 165 148 137 144 129 130 136 142 147 149 153
319 319 318 319 318 318 318 316 315 312 312 310 310 309 307 307 306 307 307 307 307 305 304 301 299 298 297 298 301 304 309 309 297 269 240 225 226 234 243 245 239 225 212 207 205 204 207 205 204 208 217 233 234 228 216 189 189 206 199 181 246 269 344 311 278 128 132 148 145 158 149 137 142 157 174 149 144 169 150 150 149 138 143 145 149 153 154 157
321 320 318 318 317 316 315 314 312 309 310 308 308 307 306 306 304 305 306 306 308 306 306 303 301 300 297 299 298 305 313 311 249 152 165 198 216 220 226 245 244 224 205 199 210 213 212 215 213 210 218 236 238 230 217 207 204 222 209 191 252 334 14 277 265 137 147 159 147 157 164 147 144 165 175 153 165 172 150 152 146 145 150 149 153 156 156 161
323 321 319 318 317 315 314 313 310 308 308 307 306 306 306 305 304 304 304 306 307 305 306 304 304 301 298 300 298 303 302 283 216 207 225 240 263 255 245 257 250 216 200 198 216 220 213 217 220 216 219 233 246 239 219 214 207 233 223 192 227 115 204 256 254 153 166 163 162 161 157 158 153 172 172 157 201 164 145 149 145 147 151 150 156 159 161 163
324 323 319 317 316 314 314 312 309 308 307 306 305 305 305 304 304 303 304 306 305 305 304 304 304 302 300 300 298 294 267 264 276 257 235 244 266 274 266 258 258 216 196 200 218 221 213 216 220 220 221 226 242 247 244 228 203 209 226 199 218 203 217 244 229 176 198 175 168 163 162 177 174 166 165 165 189 141 138 143 145 146 151 153 157 162 165 165
326 324 319 318 316 314 313 311 310 308 306 305 305 305 304 304 303 303 304 305 304 304 302 302 303 301 302 300 299 287 265 263 256 229 227 240 258 269 266 250 246 220 196 202 216 218 214 217 220 221 225 232 237 237 248 250 218 212 203 198 230 214 212 234 234 206 208 186 162 174 175 172 178 159 174 174 140 129 134 140 146 148 155 157 161 165 167 168
328 325 322 319 317 315 314 312 309 307 305 305 304 304 304 303 303 303 304 305 304 303 301 301 300 299 300 298 294 279 272 260 199 238 263 258 260 256 252 235 226 216 202 208 216 220 219 219 221 223 231 239 243 240 241 249 247 241 219 200 235 234 216 221 235 220 210 202 165 185 186 162 170 157 181 170 139 136 137 142 149 152 159 160 164 168 167 171
330 327 326 322 319 318 316 313 309 306 305 304 303 303 302 302 302 303 304 305 303 301 301 298 297 297 297 296 284 269 273 255 222 274 273 247 243 232 224 214 214 209 205 214 219 222 223 222 223 227 240 247 250 250 244 244 247 255 247 218 214 227 227 223 238 222 211 212 175 191 192 158 166 169 191 156 144 159 145 144 152 155 163 163 167 170 169 174
332 331 328 324 322 320 318 315 311 308 306 303 302 301 300 300 301 302 303 304 302 300 299 295 296 293 288 280 257 253 258 257 253 244 210 200 211 219 214 205 208 205 205 216 219 222 226 227 230 232 239 245 253 256 253 260 266 263 257 231 211 225 220 213 240 225 204 209 185 190 186 160 167 178 192 150 149 170 151 147 156 160 165 165 169 170 170 177
334 332 329 326 324 323 321 318 314 311 308 305 302 299 298 298 298 300 301 301 300 299 297 295 294 288 285 261 248 254 261 262 265 247 225 216 217 223 220 210 209 207 210 219 220 223 227 229 234 238 240 238 246 256 257 258 263 269 274 262 234 246 226 209 232 222 201 203 181 179 185 177 177 180 179 156 154 169 155 153 160 163 167 167 171 171 172 180
333 332 329 327 326 326 324 320 317 314 311 308 304 301 298 296 296 297 298 298 298 298 296 296 294 284 273 255 257 269 278 264 260 253 238 224 226 227 224 223 217 215 218 223 225 225 227 230 234 238 245 248 246 252 256 250 252 262 270 274 250 251 238 221 226 222 223 206 168 172 204 190 181 180 173 158 159 172 163 160 164 165 168 169 174 173 175 182
332 331 327 326 326 326 324 321 318 316 314 311 307 304 299 296 295 294 294 295 294 295 296 296 294 273 244 259 275 279 260 253 253 249 240 225 227 227 225 227 226 226 225 227 231 229 228 230 234 240 242 246 254 260 261 257 262 260 247 247 246 254 248 217 196 208 224 189 163 174 211 201 187 180 173 162 164 178 172 166 169 168 170 172 176 176 177 184
332 330 327 325 325 325 324 322 319 318 315 311 309 307 302 298 294 292 291 289 289 290 293 295 288 257 250 271 286 287 245 236 242 242 238 229 225 227 227 226 227 229 227 227 229 230 232 229 228 236 239 240 250 259 263 257 251 248 239 232 224 236 259 219 180 207 216 170 168 183 200 207 198 180 175 169 166 181 179 171 175 174 173 175 177 178 179 186
333 332 328 325 324 324 325 322 320 320 316 313 312 308 303 300 296 293 287 284 284 283 285 292 293 281 274 277 282 275 231 225 236 241 237 228 221 225 228 223 224 225 225 224 223 226 228 231 230 231 234 235 237 242 252 257 242 229 230 240 226 216 240 221 179 209 210 171 179 196 205 191 203 197 180 170 170 183 181 175 181 179 176 177 178 181 181 186
334 334 331 328 325 325 326 323 322 322 318 317 315 309 306 301 295 290 282 279 277 276 277 268 270 275 261 264 269 253 229 224 232 234 227 221 216 222 224 218 218 216 218 218 218 222 220 223 230 229 231 230 227 227 231 241 241 230 221 236 243 231 233 203 166 201 200 184 189 201 215 190 204 211 183 171 176 185 184 179 184 183 179 178 181 183 183 186
333 334 333 330 326 326 328 326 325 324 321 322 321 315 313 306 294 288 281 280 275 271 278 244 210 256 251 248 252 248 238 223 217 219 210 206 212 221 222 213 211 209 210 214 212 215 215 214 218 221 223 221 223 222 221 226 229 233 222 221 240 244 242 207 165 188 194 198 195 197 219 202 203 212 177 171 184 187 186 184 185 186 183 180 183 187 185 187
331 332 332 331 328 327 329 329 327 326 324 325 327 319 316 315 302 292 282 271 243 225 272 218 190 213 271 270 243 236 244 213 192 201 195 195 204 213 224 212 206 207 206 207 204 206 208 206 211 219 218 214 216 218 221 225 228 238 233 221 226 235 245 226 186 183 191 209 202 196 218 193 200 233 182 173 188 188 187 188 186 187 187 184 186 192 189 189
329 330 330 330 328 326 329 331 328 328 327 329 340 339 334 333 312 306 352 264 240 242 271 251 209 224 264 284 261 216 218 186 183 200 193 194 200 204 219 212 206 210 209 210 198 198 207 210 212 215 217 215 214 219 226 228 231 242 246 234 228 229 230 229 221 194 185 210 206 203 220 188 192 228 191 176 188 190 188 190 189 187 189 189 189 193 194 193
328 328 328 329 328 327 329 332 328 330 332 333 349 351 345 355 340 324 333 298 263 254 263 263 250 246 254 263 258 233 213 190 194 205 196 196 204 206 209 205 210 211 207 218 208 195 208 221 219 215 218 220 218 220 224 231 233 237 249 249 239 244 232 221 225 193 179 203 202 198 220 202 194 212 193 182 189 193 192 191 191 190 191 192 190 192 197 196
328 327 327 328 328 328 330 332 330 332 338 343 350 338 330 350 344 323 322 299 280 268 259 260 259 255 251 250 251 251 247 225 205 205 206 205 209 211 200 196 214 216 201 214 216 199 208 223 223 217 217 221 224 224 222 228 234 233 243 252 248 255 247 229 228 190 171 198 202 190 213 214 200 206 199 190 192 196 198 196 194 193 191 191 189 191 197 199
328 328 328 328 329 330 331 331 334 338 345 347 330 314 319 331 327 325 315 289 285 276 257 250 248 247 245 241 238 240 244 240 220 208 206 209 213 212 208 201 211 220 207 207 216 211 212 220 222 221 219 218 221 224 221 223 231 234 236 243 246 252 251 238 233 195 169 186 211 192 203 220 212 208 201 201 203 201 201 202 199 196 193 192 191 192 196 199
329 329 328 330 329 331 334 331 338 350 339 327 310 298 314 329 326 330 318 287 281 275 255 243 237 236 236 232 226 225 230 233 231 218 201 202 211 209 215 215 210 221 218 211 217 224 228 219 214 220 221 219 220 221 223 221 223 231 234 238 240 245 248 245 242 203 165 179 213 204 202 217 220 215 204 203 207 203 201 202 200 197 195 198 198 194 195 199
329 329 328 331 330 330 337 333 325 336 326 321 325 320 330 330 325 331 322 284 266 273 261 237 229 232 229 224 218 216 223 225 225 223 207 202 207 205 214 219 214 222 223 219 221 227 235 226 210 214 219 220 221 219 221 223 221 225 230 236 241 242 243 245 248 224 173 186 206 207 219 220 216 221 216 204 204 205 202 200 201 197 192 196 202 198 194 197
328 329 328 329 331 332 337 340 305 312 315 340 352 336 330 327 320 324 316 276 268 266 242 201 201 217 213 209 208 208 219 226 220 220 216 208 207 210 215 214 217 226 223 223 228 228 232 231 220 213 215 218 221 222 219 220 226 226 221 228 238 246 247 245 248 240 209 199 196 200 223 230 220 223 219 212 212 208 200 200 205 201 193 194 201 203 199 197
327 329 328 326 332 336 332 328 317 309 305 331 340 325 320 320 316 320 303 269 269 228 184 166 170 181 194 197 193 195 208 216 212 213 215 210 204 211 221 215 214 225 227 225 227 227 221 226 227 218 215 216 218 222 218 216 225 231 221 222 228 238 246 246 246 247 230 204 201 207 218 230 231 226 218 217 222 217 205 204 207 203 200 198 202 204 203 202
329 329 328 322 327 336 326 319 320 313 297 306 321 317 314 317 314 314 280 270 298 147 146 156 166 166 191 191 183 194 212 207 206 203 206 209 199 201 219 226 221 218 221 228 228 226 220 222 227 223 218 218 220 221 218 218 225 230 229 229 226 228 239 247 247 245 232 217 210 207 212 232 236 221 219 219 221 222 214 210 207 205 205 203 204 206 204 206
331 331 330 321 319 325 314 309 313 319 310 302 310 313 314 312 305 295 250 261 312 336 151 159 165 172 192 185 184 204 217 226 233 187 192 204 198 199 216 226 232 227 218 228 236 232 227 221 224 228 222 217 223 223 221 222 225 228 230 234 234 228 227 238 247 248 240 234 232 212 203 223 245 224 221 222 219 218 217 214 209 205 206 204 205 207 207 206
333 332 330 321 318 319 307 298 314 341 340 318 308 308 308 299 282 247 228 231 265 233 139 145 169 178 188 186 191 208 211 223 231 176 184 197 192 201 222 222 230 242 225 224 233 241 243 227 219 228 231 224 225 223 222 226 227 227 230 234 239 237 230 228 234 244 250 240 240 234 212 208 235 234 222 226 226 221 218 216 211 205 204 204 206 209 210 208
332 331 328 322 319 315 301 292 318 334 306 299 305 302 294 280 247 229 228 231 257 221 134 147 185 179 186 194 196 204 205 216 212 175 183 195 186 197 218 216 219 238 236 228 225 233 243 237 220 218 225 231 232 225 222 225 225 224 226 228 231 237 240 236 221 222 239 237 236 246 233 217 223 229 222 226 225 226 228 217 210 207 202 202 207 211 209 206
328 328 323 319 312 299 287 286 287 262 259 280 302 297 274 240 227 228 228 236 263 227 183 191 201 184 191 202 201 197 202 210 202 183 186 193 190 195 206 209 201 208 225 229 221 220 228 236 235 217 214 226 231 221 220 225 221 219 221 222 224 225 230 235 227 220 236 240 233 243 242 229 227 223 222 229 221 220 229 224 213 208 205 203 203 204 202 199
324 325 322 318 306 290 284 287 281 257 264 285 288 277 245 235 229 217 223 231 251 257 193 194 208 200 195 205 210 198 198 207 200 192 193 196 199 201 206 210 206 204 216 220 221 220 218 226 233 226 207 216 226 216 212 219 215 214 216 217 219 219 221 227 230 230 239 237 228 236 242 240 240 219 212 228 229 222 225 222 217 210 205 201 191 192 200 199
321 324 321 314 302 287 282 286 281 264 271 272 263 248 226 235 233 211 221 227 244 278 282 232 225 214 202 207 216 204 199 207 205 199 196 199 206 205 205 210 212 212 216 220 221 221 222 218 219 225 210 201 216 221 216 215 214 215 219 224 224 222 224 225 224 225 234 237 231 234 238 239 244 215 200 218 225 225 224 219 216 208 198 195 189 194 206 203
320 322 319 316 307 289 279 273 264 251 247 240 237 230 223 230 232 227 233 230 241 262 270 269 257 234 216 211 216 215 213 208 204 206 204 203 211 211 204 207 211 213 212 218 223 217 229 230 204 214 220 206 207 215 217 220 219 212 214 224 226 223 227 232 237 235 231 235 237 236 236 236 240 218 198 211 219 220 220 218 216 205 197 204 202 196 198 197
322 324 320 315 300 283 273 254 234 222 226 228 228 228 227 234 237 234 242 241 239 247 259 260 250 242 233 218 214 217 221 216 202 205 210 208 213 216 212 207 205 210 212 212 221 218 226 234 205 205 216 216 209 206 210 219 225 212 212 220 222 223 227 233 243 244 236 232 234 236 238 232 234 227 204 207 222 218 212 215 216 206 203 211 206 189 187 192
330 332 322 309 290 261 240 223 208 209 222 226 231 235 234 241 246 251 261 266 268 261 256 253 240 239 238 228 220 214 214 218 209 207 210 208 213 215 215 215 205 207 214 215 225 230 231 240 214 205 211 212 206 205 208 215 225 228 214 210 214 225 230 231 240 240 233 235 233 231 237 234 231 234 203 203 218 216 206 208 208 202 203 214 210 183 178 188
336 335 318 314 309 231 212 208 202 211 223 229 240 245 248 250 249 255 264 271 282 278 265 259 243 237 237 232 228 218 212 213 213 215 216 211 213 210 211 219 211 205 210 215 224 227 230 247 223 210 211 203 196 204 213 212 218 232 235 211 206 219 221 218 232 237 230 235 237 231 237 236 234 236 210 206 216 210 201 203 206 206 199 208 213 183 172 184
337 325 306 316 353 191 192 198 214 223 228 233 242 244 246 256 257 264 271 276 284 279 268 267 259 249 246 239 234 227 220 216 217 221 220 216 212 205 206 215 213 206 204 209 221 229 224 243 240 213 204 193 187 200 215 209 209 225 241 234 221 222 219 216 227 235 230 233 236 233 234 231 232 237 222 213 210 199 193 193 203 219 211 205 214 194 175 180
329 309 288 288 287 203 190 228 239 234 234 239 247 253 252 255 256 259 263 268 274 271 265 265 260 255 253 247 242 239 231 225 223 220 218 222 221 208 207 210 213 209 202 202 213 223 222 231 243 221 198 194 195 199 208 210 202 209 228 235 230 222 218 225 229 227 227 233 238 237 235 230 228 234 233 225 207 190 191 192 193 217 225 215 219 211 184 176
315 295 282 279 266 227 235 253 249 237 243 246 247 257 259 262 265 260 258 259 259 259 262 267 267 263 261 256 247 241 240 236 228 223 216 219 226 221 208 208 213 211 203 201 207 213 219 223 231 232 211 204 207 201 203 211 210 205 214 227 231 223 211 221 228 222 220 224 234 243 242 235 229 230 238 237 211 183 190 209 201 202 220 228 233 229 195 173
301 277 277 275 290 300 274 257 255 245 245 251 253 257 260 262 265 263 261 261 260 258 257 258 262 263 262 260 256 251 251 249 238 233 221 214 222 225 212 208 210 213 210 205 204 205 214 223 223 231 232 225 217 204 199 207 214 215 215 216 226 230 221 220 223 221 224 222 225 241 246 239 234 233 236 235 219 189 191 210 211 197 206 220 233 236 203 173
294 287 284 269 271 289 280 255 258 256 250 257 259 261 262 261 261 261 260 258 256 257 256 252 253 254 255 258 259 260 260 257 252 247 238 223 220 220 223 221 213 211 212 208 202 200 205 222 224 223 235 245 236 213 198 202 210 218 221 213 215 225 228 232 229 217 226 229 224 233 237 228 232 242 244 239 238 225 208 206 210 208 207 210 220 230 204 173
296 293 288 277 269 271 265 252 255 254 254 259 256 254 255 256 256 256 255 253 251 252 252 251 248 246 248 254 257 263 263 257 256 255 253 250 229 212 217 223 217 210 209 206 200 192 194 214 220 214 217 232 235 219 199 200 208 213 222 220 217 220 225 234 240 227 225 227 226 235 236 213 214 230 243 239 233 237 227 208 209 224 223 215 215 215 186 168
299 289 282 285 278 256 246 248 256 256 256 259 261 262 261 259 257 257 256 252 251 253 252 252 254 251 250 249 248 254 258 257 262 262 260 262 248 219 214 216 211 209 216 223 212 199 196 205 211 214 213 210 219 221 201 197 209 214 217 223 223 222 222 227 235 236 232 224 223 235 247 223 207 206 215 233 230 221 214 211 227 238 232 221 203 172 159 163
297 291 286 293 284 260 247 245 250 256 266 275 284 290 293 298 294 291 286 259 245 250 255 254 255 254 252 253 249 248 250 252 257 261 261 263 262 239 225 221 211 199 188 1 261 213 208 207 207 215 226 222 217 226 221 206 207 212 213 218 224 226 224 223 228 233 236 239 234 235 250 257 240 211 199 216 228 217 182 191 233 248 234 211 167 139 147 166
281 278 284 299 299 286 275 260 251 254 294 310 319 308 299 301 304 308 309 288 268 272 271 267 266 255 247 252 252 248 248 247 249 256 257 260 269 257 234 229 223 195 157 17 265 222 225 222 211 209 222 238 237 229 228 220 214 217 215 214 219 226 228 225 225 228 229 238 241 230 234 255 256 241 218 209 218 228 207 183 217 251 247 227 178 145 154 174
272 273 280 294 298 288 293 293 287 290 292 291 299 300 295 294 292 297 305 306 317 331 331 309 314 312 288 278 276 270 262 249 243 248 249 248 262 264 239 227 223 199 185 229 239 228 238 233 222 212 210 224 237 238 237 232 221 221 222 218 214 218 228 232 232 228 225 234 244 230 221 237 249 252 253 245 223 230 230 199 201 228 243 242 192 156 167 177
274 277 284 297 299 290 292 292 290 289 280 273 275 273 277 282 279 283 298 301 306 331 347 324 326 335 330 321 318 313 309 294 264 254 255 251 252 257 248 236 227 201 191 219 229 229 245 238 239 238 220 213 221 232 243 244 234 224 223 225 222 217 220 228 237 236 231 234 243 238 227 230 239 243 251 258 260 254 244 215 201 208 225 244 220 180 189 191
270 278 294 308 308 300 295 286 280 281 279 272 269 258 255 265 271 277 294 297 291 312 332 319 318 328 331 326 319 323 345 341 323 309 305 294 270 255 251 248 240 216 205 219 223 221 238 232 231 246 249 228 219 221 230 241 248 244 232 226 230 231 224 218 224 234 236 236 239 241 239 235 237 240 242 252 261 264 260 241 218 204 205 227 240 231 227 217
271 277 287 298 299 294 293 290 283 278 273 268 271 269 256 252 258 264 272 278 282 293 304 310 320 322 317 315 314 322 337 333 322 319 315 307 296 285 278 264 249 228 211 217 221 217 225 230 225 231 243 242 231 222 221 227 240 250 246 235 231 235 237 227 215 214 229 243 244 239 238 231 228 235 238 239 242 249 256 259 251 230 209 212 226 236 244 240
285 289 285 281 280 280 286 293 287 279 277 276 276 284 282 273 269 269 271 275 279 281 282 289 314 316 305 308 315 322 327 321 314 311 305 297 289 287 292 288 265 244 220 214 215 215 218 221 225 227 228 232 238 238 229 224 230 236 239 241 239 240 245 248 237 214 217 233 246 246 246 244 227 227 236 236 230 232 241 246 252 250 229 215 219 224 231 239
Height
1520 1519 1518 1517 1516 1515 1514 1513 1512 1511 1510 1509 1508 1507 1506 1505 1504 1503 1502 1501 1501 1499 1499 1498 1497 1495 1494 1493 1491 1490 1488 1486 1485 1483 1481 1478 1480 1482 1482 1483 1484 1485 1485 1486 1488 1490 1491 1492 1494 1494 1495 1494 1493 1492 1491 1491 1490 1491 1493 1501 1500 1495 1496 1482 1470 1470 1469 1472 1471 1470 1470 1474 1477 1477 1479 1480 1483 1485 1486 1489 1491 1494 1497 1501 1506 1510 1514 1516
1519 1518 1517 1516 1515 1514 1513 1512 1511 1510 1509 1508 1506 1506 1505 1504 1503 1502 1501 1500 1499 1498 1497 1496 1495 1494 1493 1492 1490 1489 1486 1484 1482 1478 1476 1476 1478 1479 1480 1481 1482 1483 1484 1485 1486 1488 1489 1490 1491 1492 1493 1491 1489 1488 1487 1486 1484 1486 1491 1500 1497 1487 1482 1469 1464 1464 1464 1470 1469 1468 1470 1472 1476 1477 1478 1480 1483 1484 1486 1489 1491 1495 1499 1503 1508 1510 1514 1517
1518 1518 1516 1515 1514 1513 1512 1511 1509 1508 1507 1506 1505 1504 1503 1502 1501 1500 1500 1498 1498 1497 1496 1495 1494 1493 1492 1490 1489 1488 1484 1481 1478 1473 1471 1473 1476 1477 1478 1479 1479 1481 1481 1483 1485 1487 1488 1488 1488 1489 1490 1487 1484 1483 1481 1480 1480 1479 1486 1500 1494 1477 1470 1464 1462 1463 1465 1467 1467 1468 1469 1470 1474 1476 1477 1478 1482 1484 1485 1489 1490 1495 1500 1504 1509 1511 1514 1517
1518 1517 1516 1515 1514 1512 1511 1510 1508 1507 1506 1505 1503 1502 1501 1500 1500 1499 1498 1497 1496 1495 1494 1493 1492 1491 1491 1489 1488 1487 1484 1480 1474 1470 1470 1472 1474 1475 1476 1477 1477 1478 1479 1481 1484 1486 1487 1487 1487 1486 1486 1483 1479 1478 1476 1476 1476 1474 1478 1490 1483 1470 1474 1471 1464 1463 1465 1466 1468 1469 1469 1471 1473 1475 1474 1475 1483 1485 1483 1487 1489 1495 1500 1503 1508 1511 1514 1516
1518 1516 1515 1514 1513 1511 1510 1509 1507 1506 1505 1503 1502 1501 1500 1499 1498 1497 1496 1495 1495 1494 1493 1492 1491 1490 1489 1488 1487 1485 1485 1481 1472 1469 1470 1471 1473 1474 1475 1476 1476 1476 1477 1480 1482 1484 1485 1485 1484 1483 1483 1480 1476 1475 1473 1471 1471 1472 1471 1475 1471 1469 1477 1473 1463 1464 1464 1465 1467 1469 1471 1471 1471 1474 1473 1473 1482 1482 1480 1485 1489 1494 1499 1502 1506 1510 1512 1515
1517 1515 1514 1513 1512 1510 1509 1508 1506 1505 1503 1502 1501 1499 1498 1497 1496 1495 1495 1494 1493 1492 1491 1490 1489 1489 1487 1487 1486 1485 1486 1480 1471 1470 1471 1471 1472 1473 1474 1474 1474 1475 1476 1478 1480 1482 1482 1482 1482 1480 1479 1478 1475 1471 1469 1467 1467 1472 1469 1465 1467 1469 1473 1469 1463 1464 1464 1465 1467 1468 1470 1470 1471 1473 1472 1473 1475 1474 1478 1485 1489 1495 1499 1502 1506 1509 1511 1513
1516 1515 1513 1512 1511 1509 1508 1507 1505 1503 1502 1501 1499 1498 1497 1496 1494 1494 1493 1492 1491 1491 1490 1489 1488 1487 1486 1486 1485 1484 1483 1475 1468 1470 1470 1470 1471 1471 1473 1473 1473 1474 1474 1476 1478 1479 1479 1480 1479 1476 1476 1477 1474 1469 1466 1461 1459 1467 1468 1463 1464 1466 1467 1464 1462 1462 1462 1464 1465 1467 1469 1469 1471 1473 1473 1473 1473 1472 1478 1485 1489 1495 1499 1503 1505 1508 1511 1512
1515 1514 1512 1511 1510 1508 1507 1505 1504 1502 1501 1499 1498 1496 1495 1494 1493 1492 1491 1491 1490 1489 1488 1487 1487 1486 1485 1484 1484 1482 1477 1470 1467 1469 1469 1469 1470 1470 1471 1471 1472 1473 1473 1474 1476 1477 1477 1476 1476 1475 1475 1474 1471 1467 1462 1459 1456 1459 1461 1458 1459 1460 1461 1461 1460 1461 1461 1461 1464 1467 1467 1468 1469 1472 1472 1472 1474 1474 1478 1485 1490 1495 1499 1502 1505 1507 1510 1512
1514 1512 1511 1510 1508 1507 1506 1504 1503 1501 1499 1498 1496 1495 1493 1492 1491 1490 1490 1489 1488 1488 1487 1486 1485 1484 1484 1482 1483 1480 1472 1467 1466 1467 1468 1468 1468 1468 1469 1470 1471 1471 1472 1473 1474 1475 1474 1474 1474 1473 1472 1470 1467 1463 1459 1462 1461 1453 1450 1452 1455 1456 1456 1458 1459 1459 1460 1459 1462 1466 1465 1467 1469 1472 1473 1471 1474 1477 1479 1485 1490 1494 1498 1501 1504 1506 1508 1511
1513 1511 1510 1508 1507 1506 1504 1503 1501 1499 1498 1497 1495 1494 1492 1491 1489 1488 1488 1487 1487 1486 1485 1485 1483 1483 1483 1481 1482 1478 1469 1467 1467 1465 1466 1466 1466 1467 1468 1469 1469 1470 1471 1472 1473 1473 1472 1472 1472 1472 1471 1467 1465 1462 1457 1458 1456 1448 1446 1448 1451 1453 1453 1456 1456 1455 1458 1457 1459 1464 1465 1466 1467 1473 1475 1471 1474 1478 1480 1485 1489 1493 1496 1499 1503 1505 1507 1510
1511 1510 1508 1507 1505 1504 1502 1501 1499 1498 1497 1495 1494 1492 1491 1489 1488 1487 1486 1485 1485 1484 1484 1483 1482 1482 1481 1481 1480 1473 1467 1467 1467 1466 1466 1466 1466 1466 1467 1468 1468 1469 1470 1471 1471 1472 1472 1472 1472 1472 1471 1468 1466 1462 1456 1454 1451 1446 1445 1446 1447 1448 1449 1452 1453 1452 1453 1455 1457 1459 1462 1464 1467 1472 1473 1470 1475 1478 1479 1485 1489 1492 1495 1498 1501 1504 1507 1509
1510 1508 1507 1505 1504 1502 1501 1499 1497 1496 1495 1493 1492 1490 1489 1488 1486 1485 1484 1484 1482 1482 1482 1481 1481 1480 1479 1479 1474 1467 1465 1466 1466 1467 1466 1465 1466 1466 1467 1468 1468 1468 1469 1469 1470 1470 1471 1471 1471 1471 1468 1467 1467 1465 1461 1456 1452 1448 1445 1448 1449 1447 1449 1448 1446 1447 1448 1452 1452 1456 1469 1472 1469 1470 1468 1469 1475 1476 1479 1484 1488 1491 1494 1497 1500 1503 1506 1508
1509 1507 1505 1504 1503 1501 1499 1497 1495 1494 1493 1491 1490 1488 1487 1486 1485 1484 1482 1482 1481 1480 1480 1480 1479 1478 1478 1473 1465 1463 1464 1464 1464 1465 1464 1464 1465 1465 1466 1467 1467 1467 1468 1468 1468 1469 1470 1471 1470 1470 1468 1466 1464 1464 1461 1453 1452 1452 1449 1452 1455 1456 1455 1445 1440 1444 1446 1448 1447 1458 1481 1482 1469 1466 1465 1469 1474 1475 1478 1482 1486 1490 1493 1496 1499 1501 1504 1507
1508 1506 1504 1503 1501 1500 1498 1496 1494 1492 1490 1489 1487 1486 1485 1484 1483 1481 1480 1479 1479 1478 1477 1478 1477 1477 1476 1467 1460 1461 1462 1462 1463 1462 1462 1463 1463 1464 1464 1465 1466 1466 1467 1467 1468 1468 1468 1469 1470 1469 1468 1466 1462 1461 1458 1452 1452 1455 1454 1457 1461 1467 1460 1440 1437 1445 1448 1448 1445 1458 1483 1483 1468 1463 1464 1468 1473 1475 1477 1480 1484 1488 1491 1494 1497 1500 1503 1505
1508 1506 1504 1502 1500 1498 1496 1494 1492 1490 1489 1487 1485 1484 1482 1481 1480 1479 1479 1477 1477 1476 1475 1476 1475 1475 1473 1463 1457 1457 1458 1459 1459 1458 1460 1461 1461 1462 1462 1463 1464 1464 1465 1466 1466 1467 1467 1468 1468 1467 1465 1465 1464 1465 1464 1459 1455 1455 1464 1467 1463 1467 1461 1440 1436 1442 1447 1448 1445 1458 1480 1481 1468 1460 1461 1466 1471 1473 1475 1478 1482 1485 1488 1492 1495 1498 1501 1503
1507 1505 1503 1501 1499 1497 1495 1493 1491 1489 1487 1484 1483 1482 1480 1479 1477 1477 1476 1475 1475 1474 1474 1475 1474 1475 1472 1461 1455 1454 1455 1455 1455 1456 1457 1457 1459 1459 1460 1461 1461 1462 1463 1464 1465 1465 1466 1465 1464 1464 1464 1464 1465 1467 1470 1470 1463 1456 1463 1470 1462 1461 1461 1449 1440 1436 1440 1447 1449 1457 1472 1476 1467 1457 1458 1463 1468 1472 1473 1477 1480 1483 1486 1489 1493 1496 1499 1502
1506 1504 1502 1500 1498 1496 1494 1491 1489 1487 1485 1483 1481 1479 1478 1476 1474 1474 1473 1473 1473 1471 1473 1473 1473 1475 1467 1455 1453 1453 1452 1452 1452 1454 1454 1455 1457 1457 1458 1458 1459 1461 1461 1462 1464 1463 1464 1463 1463 1463 1461 1461 1460 1464 1476 1482 1475 1462 1459 1465 1459 1455 1456 1454 1449 1439 1437 1448 1454 1456 1463 1469 1464 1456 1456 1460 1465 1469 1471 1475 1477 1480 1484 1487 1491 1494 1496 1499
1504 1503 1501 1499 1496 1494 1493 1490 1488 1486 1484 1481 1479 1477 1475 1474 1472 1471 1469 1470 1470 1471 1472 1470 1473 1475 1461 1449 1451 1450 1449 1450 1450 1452 1452 1453 1455 1455 1456 1456 1457 1459 1459 1460 1460 1460 1461 1458 1459 1462 1460 1461 1460 1463 1476 1479 1472 1465 1461 1463 1460 1454 1450 1450 1451 1444 1440 1449 1456 1459 1464 1464 1460 1454 1454 1458 1463 1466 1468 1472 1475 1478 1481 1485 1488 1491 1494 1497
1503 1501 1500 1498 1495 1493 1492 1490 1487 1485 1482 1480 1479 1476 1473 1472 1470 1468 1467 1468 1468 1468 1467 1463 1465 1466 1453 1444 1447 1447 1446 1447 1448 1450 1451 1452 1454 1454 1454 1454 1456 1456 1456 1458 1457 1455 1456 1456 1459 1463 1462 1461 1459 1459 1465 1463 1459 1458 1454 1454 1457 1455 1448 1442 1443 1439 1440 1451 1456 1460 1464 1462 1461 1458 1453 1456 1460 1463 1467 1469 1472 1476 1478 1482 1486 1489 1491 1494
1502 1500 1498 1497 1495 1492 1490 1489 1487 1484 1482 1480 1478 1476 1473 1471 1469 1466 1467 1468 1465 1462 1459 1456 1457 1455 1448 1445 1446 1445 1445 1445 1447 1449 1449 1451 1452 1452 1453 1453 1453 1453 1453 1454 1454 1451 1452 1459 1460 1459 1457 1455 1453 1453 1453 1451 1451 1451 1448 1447 1447 1448 1445 1439 1437 1432 1434 1450 1456 1455 1459 1459 1462 1460 1452 1454 1458 1459 1463 1466 1469 1472 1476 1479 1482 1486 1489 1492
1501 1499 1497 1496 1494 1491 1489 1488 1486 1484 1482 1480 1479 1477 1476 1475 1473 1470 1467 1464 1460 1459 1455 1452 1453 1449 1446 1446 1444 1443 1444 1444 1446 1446 1447 1449 1450 1450 1450 1450 1451 1452 1450 1448 1449 1448 1452 1459 1455 1449 1448 1447 1447 1447 1447 1448 1448 1449 1449 1446 1443 1443 1441 1434 1431 1428 1428 1446 1454 1452 1457 1459 1459 1458 1451 1451 1456 1457 1459 1462 1465 1468 1472 1476 1479 1484 1487 1489
1501 1498 1496 1495 1493 1490 1488 1486 1485 1484 1482 1481 1480 1479 1479 1478 1478 1476 1472 1461 1452 1454 1452 1448 1447 1444 1442 1444 1442 1443 1442 1440 1442 1444 1445 1446 1447 1447 1445 1446 1450 1449 1447 1446 1448 1451 1454 1454 1447 1441 1440 1442 1443 1442 1444 1448 1448 1449 1449 1448 1448 1443 1438 1432 1426 1423 1428 1444 1451 1450 1457 1459 1453 1453 1451 1450 1452 1455 1456 1458 1462 1465 1468 1472 1476 1480 1483 1486
1500 1497 1495 1494 1491 1490 1488 1485 1485 1483 1482 1482 1481 1481 1480 1479 1478 1476 1475 1464 1448 1443 1444 1441 1439 1437 1436 1438 1439 1441 1439 1436 1437 1438 1442 1444 1442 1443 1443 1443 1447 1446 1445 1446 1448 1452 1453 1448 1439 1436 1436 1439 1443 1441 1443 1447 1447 1448 1447 1450 1451 1441 1440 1442 1431 1423 1427 1439 1445 1446 1455 1457 1451 1450 1451 1451 1451 1451 1454 1456 1458 1462 1465 1468 1472 1476 1479 1482
1499 1496 1495 1492 1491 1490 1487 1485 1484 1483 1482 1481 1480 1481 1480 1479 1478 1475 1473 1465 1447 1433 1430 1430 1429 1429 1429 1430 1434 1436 1434 1434 1434 1433 1437 1440 1438 1440 1441 1439 1443 1446 1442 1441 1443 1445 1444 1436 1430 1433 1434 1437 1442 1442 1442 1446 1448 1446 1443 1445 1446 1439 1438 1439 1430 1424 1429 1437 1438 1444 1461 1462 1454 1454 1453 1450 1449 1449 1451 1453 1456 1459 1462 1465 1468 1471 1475 1479
1498 1497 1494 1491 1490 1488 1487 1486 1483 1483 1482 1480 1481 1481 1480 1479 1477 1476 1472 1465 1448 1427 1419 1422 1422 1421 1421 1426 1429 1428 1429 1430 1430 1431 1432 1434 1435 1437 1437 1435 1439 1443 1440 1437 1439 1441 1436 1426 1424 1431 1434 1433 1439 1441 1438 1441 1446 1446 1440 1436 1436 1435 1433 1431 1428 1429 1442 1451 1442 1446 1474 1475 1455 1454 1454 1448 1449 1451 1449 1450 1453 1456 1458 1462 1465 1467 1471 1475
1498 1496 1493 1491 1490 1486 1487 1485 1483 1483 1480 1481 1482 1479 1481 1479 1476 1477 1472 1466 1449 1423 1414 1416 1414 1413 1413 1419 1422 1424 1430 1427 1423 1428 1429 1430 1432 1433 1435 1434 1433 1437 1435 1432 1434 1433 1428 1422 1420 1427 1431 1432 1436 1437 1432 1433 1444 1447 1435 1428 1429 1430 1431 1431 1430 1435 1447 1456 1443 1442 1471 1479 1461 1454 1451 1447 1450 1450 1448 1448 1449 1452 1455 1458 1461 1464 1467 1470
1497 1496 1493 1491 1490 1487 1486 1484 1484 1483 1480 1482 1481 1479 1481 1477 1477 1477 1472 1471 1446 1411 1406 1411 1409 1409 1408 1411 1415 1422 1429 1421 1417 1423 1423 1425 1429 1429 1434 1432 1431 1432 1426 1428 1436 1429 1421 1422 1421 1422 1427 1431 1435 1434 1427 1426 1439 1441 1425 1421 1427 1429 1431 1431 1430 1435 1437 1440 1441 1439 1454 1471 1469 1457 1446 1444 1450 1449 1448 1449 1447 1449 1452 1454 1458 1460 1463 1466
1495 1494 1493 1490 1490 1490 1487 1485 1483 1481 1481 1481 1478 1480 1479 1476 1478 1475 1477 1479 1438 1397 1401 1408 1406 1408 1407 1409 1413 1415 1417 1412 1414 1418 1416 1421 1424 1425 1431 1428 1427 1429 1421 1427 1439 1426 1415 1421 1422 1420 1425 1428 1427 1425 1420 1422 1432 1430 1417 1417 1421 1424 1428 1427 1428 1433 1430 1438 1452 1445 1445 1467 1472 1455 1443 1444 1450 1452 1451 1449 1446 1446 1448 1451 1454 1457 1460 1463
1494 1493 1492 1489 1489 1490 1488 1485 1482 1480 1480 1478 1478 1480 1477 1478 1479 1472 1480 1476 1427 1394 1400 1404 1405 1408 1406 1408 1411 1411 1410 1409 1409 1409 1411 1417 1418 1420 1426 1423 1422 1423 1419 1422 1430 1422 1412 1413 1414 1415 1420 1422 1420 1416 1414 1419 1425 1420 1414 1415 1417 1418 1422 1425 1429 1430 1430 1443 1454 1443 1442 1465 1471 1454 1447 1448 1449 1450 1447 1443 1440 1441 1444 1447 1449 1453 1456 1459
1492 1491 1490 1488 1486 1487 1486 1484 1482 1480 1480 1479 1480 1478 1477 1480 1476 1477 1484 1463 1420 1400 1399 1400 1404 1405 1404 1409 1411 1409 1409 1407 1403 1404 1409 1412 1415 1418 1420 1420 1420 1420 1419 1417 1420 1417 1407 1404 1405 1407 1410 1411 1411 1411 1409 1412 1415 1413 1415 1420 1422 1421 1420 1424 1426 1429 1441 1450 1447 1436 1434 1454 1468 1457 1446 1446 1442 1439 1438 1438 1436 1436 1439 1443 1446 1449 1452 1455
1491 1490 1489 1487 1485 1484 1483 1482 1481 1481 1481 1480 1479 1477 1479 1477 1472 1478 1470 1434 1412 1404 1398 1402 1403 1398 1403 1408 1409 1408 1407 1405 1400 1403 1410 1409 1413 1418 1418 1421 1422 1423 1425 1421 1419 1416 1410 1407 1403 1401 1403 1404 1407 1409 1407 1406 1408 1413 1419 1425 1433 1434 1429 1431 1430 1434 1451 1453 1440 1432 1427 1440 1461 1455 1439 1435 1430 1428 1430 1432 1432 1432 1433 1437 1442 1445 1447 1450
1489 1488 1486 1485 1484 1482 1480 1480 1480 1481 1479 1479 1480 1478 1478 1477 1471 1466 1445 1419 1414 1405 1394 1400 1398 1394 1401 1403 1403 1404 1404 1404 1399 1400 1408 1408 1412 1415 1416 1418 1419 1428 1435 1427 1422 1418 1413 1410 1402 1398 1400 1401 1407 1414 1414 1410 1408 1414 1420 1427 1441 1448 1448 1449 1444 1442 1449 1444 1432 1429 1427 1434 1442 1435 1428 1427 1422 1421 1421 1421 1422 1424 1426 1431 1435 1439 1442 1446
1486 1485 1483 1482 1481 1479 1477 1477 1478 1479 1478 1479 1481 1476 1476 1477 1462 1444 1432 1423 1412 1392 1384 1392 1391 1391 1399 1401 1401 1398 1400 1402 1397 1398 1403 1404 1409 1411 1409 1408 1407 1419 1428 1424 1423 1422 1418 1411 1402 1401 1401 1397 1403 1414 1422 1418 1411 1415 1420 1428 1441 1450 1459 1463 1453 1449 1449 1439 1426 1421 1425 1433 1432 1419 1416 1418 1415 1413 1412 1412 1415 1417 1420 1426 1430 1435 1440 1442
1484 1482 1480 1479 1478 1476 1474 1475 1476 1476 1478 1479 1479 1476 1476 1470 1446 1428 1427 1421 1405 1389 1385 1389 1389 1390 1394 1398 1398 1391 1397 1401 1393 1396 1401 1402 1408 1409 1407 1406 1402 1407 1414 1417 1418 1418 1424 1420 1406 1403 1400 1396 1398 1403 1410 1412 1413 1415 1413 1419 1430 1436 1448 1456 1451 1452 1451 1439 1427 1421 1425 1434 1430 1414 1403 1404 1405 1405 1406 1408 1410 1413 1417 1423 1428 1433 1437 1439
1482 1480 1478 1475 1474 1474 1473 1474 1474 1475 1478 1477 1476 1474 1468 1453 1435 1426 1422 1413 1406 1400 1393 1389 1390 1394 1393 1393 1391 1384 1389 1395 1390 1393 1397 1399 1403 1402 1401 1402 1399 1399 1407 1416 1413 1408 1417 1414 1396 1393 1391 1390 1397 1396 1397 1407 1416 1413 1406 1415 1424 1420 1426 1437 1437 1433 1434 1436 1433 1425 1422 1418 1410 1398 1389 1394 1398 1398 1402 1404 1405 1410 1413 1418 1423 1426 1431 1435
1479 1477 1475 1472 1471 1471 1472 1473 1472 1475 1476 1474 1473 1465 1450 1437 1429 1424 1414 1406 1405 1402 1399 1396 1393 1396 1396 1390 1389 1384 1380 1383 1386 1390 1391 1392 1395 1393 1392 1391 1391 1393 1397 1406 1407 1403 1412 1407 1387 1386 1388 1385 1392 1395 1393 1405 1413 1409 1409 1415 1411 1404 1411 1428 1434 1422 1422 1438 1434 1422 1420 1410 1402 1398 1388 1392 1399 1396 1399 1401 1402 1407 1410 1413 1416 1418 1424 1430
1478 1475 1472 1468 1467 1468 1471 1472 1471 1473 1473 1471 1466 1452 1436 1430 1425 1418 1410 1405 1402 1397 1400 1402 1394 1393 1396 1389 1386 1384 1380 1379 1381 1385 1388 1388 1387 1385 1384 1382 1380 1384 1386 1391 1397 1394 1400 1402 1384 1382 1391 1385 1383 1391 1392 1393 1399 1404 1409 1405 1399 1401 1405 1417 1435 1431 1429 1440 1431 1419 1420 1416 1417 1415 1397 1393 1401 1399 1398 1400 1400 1404 1408 1410 1411 1413 1419 1425
1479 1476 1470 1465 1464 1465 1468 1470 1470 1471 1471 1467 1458 1445 1435 1431 1423 1418 1413 1408 1406 1401 1400 1401 1392 1386 1389 1388 1383 1378 1377 1381 1380 1381 1383 1383 1380 1375 1377 1379 1374 1374 1377 1383 1391 1386 1389 1402 1388 1374 1383 1383 1377 1391 1399 1391 1388 1394 1394 1388 1396 1414 1417 1418 1431 1435 1435 1442 1435 1422 1417 1415 1417 1413 1399 1397 1400 1397 1397 1398 1400 1402 1404 1406 1407 1409 1414 1419
1480 1478 1471 1465 1466 1466 1467 1469 1469 1468 1467 1460 1452 1443 1436 1431 1425 1421 1418 1413 1411 1408 1404 1400 1392 1385 1382 1382 1381 1375 1373 1377 1378 1378 1379 1378 1375 1367 1366 1372 1370 1369 1371 1376 1386 1384 1383 1400 1398 1374 1370 1378 1380 1391 1401 1396 1389 1390 1390 1387 1390 1401 1409 1414 1418 1420 1428 1439 1438 1428 1421 1415 1406 1395 1391 1393 1391 1391 1395 1396 1398 1399 1398 1400 1403 1405 1408 1413
1482 1480 1471 1466 1467 1466 1467 1469 1467 1464 1460 1453 1445 1439 1432 1429 1425 1422 1420 1416 1413 1410 1405 1399 1393 1390 1384 1378 1377 1373 1369 1370 1370 1373 1373 1371 1370 1364 1359 1362 1365 1364 1365 1370 1379 1382 1381 1393 1400 1381 1368 1377 1384 1385 1390 1394 1394 1398 1401 1400 1396 1393 1397 1406 1407 1404 1414 1429 1433 1430 1426 1413 1391 1378 1380 1382 1381 1383 1387 1391 1394 1394 1392 1394 1397 1400 1403 1406
1484 1480 1470 1464 1466 1467 1467 1467 1463 1458 1453 1446 1441 1436 1431 1428 1424 1420 1418 1415 1410 1405 1403 1399 1395 1391 1386 1381 1377 1371 1368 1366 1363 1364 1367 1365 1367 1365 1355 1353 1358 1360 1363 1369 1375 1378 1381 1388 1395 1389 1378 1380 1380 1373 1375 1383 1386 1392 1398 1398 1397 1395 1398 1413 1416 1402 1400 1413 1421 1423 1424 1408 1381 1369 1371 1373 1373 1375 1379 1385 1389 1388 1390 1393 1393 1395 1397 1399
1483 1477 1468 1463 1464 1466 1465 1460 1455 1452 1446 1441 1437 1433 1430 1427 1423 1420 1417 1414 1409 1403 1399 1397 1394 1391 1388 1383 1377 1371 1368 1366 1361 1359 1359 1358 1360 1360 1350 1346 1350 1353 1357 1367 1369 1368 1373 1380 1389 1390 1380 1374 1369 1362 1366 1373 1374 1380 1386 1386 1389 1389 1392 1408 1417 1405 1397 1400 1403 1411 1418 1403 1374 1363 1366 1367 1366 1368 1372 1377 1380 1382 1386 1390 1391 1390 1391 1393
1481 1474 1467 1462 1461 1464 1463 1456 1452 1448 1441 1436 1434 1430 1427 1424 1420 1418 1416 1413 1408 1404 1399 1394 1391 1390 1388 1383 1378 1374 1372 1368 1363 1357 1352 1351 1350 1349 1346 1343 1346 1348 1353 1361 1364 1363 1369 1378 1387 1389 1381 1371 1363 1357 1358 1364 1371 1379 1379 1376 1381 1384 1383 1387 1392 1394 1398 1401 1401 1411 1418 1400 1374 1362 1362 1363 1363 1364 1367 1370 1374 1377 1380 1384 1386 1386 1387 1389
1481 1474 1467 1461 1459 1461 1459 1451 1448 1445 1439 1434 1430 1426 1423 1420 1417 1415 1413 1410 1406 1402 1398 1392 1388 1387 1385 1382 1380 1377 1376 1374 1368 1358 1352 1350 1345 1340 1340 1341 1342 1345 1349 1354 1356 1359 1370 1378 1383 1391 1395 1392 1383 1372 1368 1369 1372 1378 1378 1373 1374 1377 1380 1382 1381 1386 1397 1399 1398 1408 1411 1394 1373 1364 1363 1363 1365 1365 1363 1365 1371 1375 1376 1378 1380 1381 1384 1388
1480 1472 1464 1459 1457 1456 1452 1446 1444 1440 1435 1431 1426 1421 1419 1415 1412 1412 1409 1406 1403 1400 1396 1391 1386 1383 1381 1381 1380 1377 1376 1376 1373 1364 1357 1353 1343 1333 1333 1337 1339 1342 1345 1346 1345 1351 1365 1373 1377 1387 1398 1403 1399 1386 1377 1376 1374 1374 1375 1373 1373 1373 1377 1384 1387 1393 1399 1394 1391 1398 1399 1386 1371 1366 1367 1367 1367 1367 1365 1366 1371 1373 1374 1375 1376 1379 1383 1387
1480 1472 1463 1457 1453 1449 1444 1442 1440 1436 1432 1433 1431 1426 1422 1418 1413 1411 1409 1404 1399 1397 1394 1390 1386 1383 1382 1382 1382 1380 1376 1374 1374 1369 1362 1358 1348 1335 1330 1331 1334 1339 1344 1346 1344 1348 1360 1365 1368 1376 1381 1383 1385 1377 1367 1367 1373 1375 1375 1373 1373 1371 1371 1378 1387 1393 1394 1392 1392 1389 1388 1386 1378 1369 1369 1369 1368 1368 1368 1369 1372 1372 1373 1374 1376 1379 1383 1388
1480 1473 1465 1459 1454 1447 1441 1438 1437 1437 1437 1440 1440 1433 1428 1425 1420 1414 1411 1407 1402 1398 1396 1392 1388 1386 1385 1384 1383 1381 1377 1374 1373 1371 1366 1362 1353 1340 1333 1331 1332 1337 1343 1347 1347 1350 1360 1365 1362 1367 1372 1369 1367 1366 1360 1360 1366 1370 1371 1372 1372 1371 1369 1374 1382 1383 1382 1392 1397 1385 1381 1389 1382 1369 1368 1369 1367 1367 1367 1368 1370 1371 1372 1374 1375 1378 1382 1388
1477 1471 1466 1464 1460 1453 1447 1441 1438 1439 1441 1441 1441 1438 1435 1431 1427 1421 1415 1409 1406 1405 1404 1401 1397 1394 1393 1391 1390 1387 1381 1376 1372 1370 1367 1364 1359 1350 1340 1334 1334 1337 1342 1349 1349 1350 1361 1365 1357 1358 1366 1366 1363 1362 1358 1357 1359 1362 1364 1365 1367 1369 1371 1373 1373 1371 1373 1386 1390 1381 1380 1386 1379 1369 1367 1365 1363 1364 1363 1364 1367 1370 1372 1373 1376 1379 1383 1388
1475 1470 1466 1465 1463 1458 1453 1448 1443 1440 1439 1439 1439 1438 1438 1435 1430 1425 1419 1413 1408 1408 1412 1412 1408 1405 1404 1403 1403 1401 1397 1392 1386 1376 1368 1365 1363 1358 1351 1344 1337 1335 1341 1349 1349 1349 1359 1364 1357 1354 1357 1357 1359 1361 1359 1357 1358 1358 1358 1359 1360 1363 1366 1367 1367 1365 1367 1375 1376 1373 1377 1378 1372 1368 1365 1359 1358 1359 1360 1362 1365 1368 1371 1372 1375 1380 1383 1386
1473 1470 1468 1466 1463 1459 1456 1451 1445 1440 1437 1437 1437 1435 1434 1434 1431 1426 1423 1420 1416 1412 1415 1418 1415 1412 1412 1411 1410 1408 1406 1408 1405 1394 1383 1378 1372 1362 1356 1351 1341 1335 1341 1348 1350 1351 1359 1364 1361 1358 1360 1357 1355 1357 1360 1360 1361 1359 1357 1356 1358 1360 1360 1362 1364 1364 1366 1371 1369 1368 1375 1375 1367 1362 1361 1359 1358 1359 1361 1363 1364 1366 1370 1372 1374 1377 1378 1379
1471 1470 1469 1468 1462 1458 1456 1450 1446 1443 1437 1434 1434 1431 1429 1429 1428 1425 1423 1422 1420 1418 1418 1420 1419 1417 1415 1414 1414 1411 1407 1407 1405 1399 1392 1389 1381 1370 1361 1351 1342 1340 1345 1350 1353 1354 1359 1364 1361 1363 1372 1368 1356 1355 1358 1359 1362 1365 1361 1356 1355 1357 1358 1355 1354 1357 1365 1369 1369 1370 1376 1374 1364 1359 1361 1360 1358 1360 1362 1362 1363 1365 1367 1370 1373 1374 1375 1375
1470 1468 1468 1468 1462 1456 1455 1452 1447 1444 1438 1432 1431 1431 1428 1425 1423 1423 1423 1421 1420 1421 1420 1420 1421 1421 1418 1416 1415 1413 1409 1405 1400 1395 1390 1385 1377 1370 1363 1353 1343 1341 1344 1349 1352 1352 1356 1362 1363 1368 1376 1371 1359 1356 1356 1361 1372 1372 1361 1354 1353 1353 1353 1350 1347 1349 1355 1362 1369 1372 1369 1363 1357 1358 1361 1360 1358 1360 1361 1361 1362 1364 1365 1367 1369 1370 1372 1373